Location: Newark
(47.5833°N, 8.1500°E)
Time: 12:53:25
(UTC+00:00)

A-11 Canister half - Visible Passes

Search period start: 31 October 2020 00:00
Search period end: 10 November 2020 00:00
Orbit: 1515 x 1685 km, 47.2° (Epoch: 30 October)

Date Brightness Start Highest point End Pass type
(mag) Time Alt. Az. Time Alt. Az. Time Alt. Az.
31 Oct 9.9 17:27:23 10° SSW 17:35:52 32° SE 17:41:10 20° E visible
31 Oct 9.0 19:29:44 10° SW 19:39:23 68° S 19:39:23 68° S visible
31 Oct 10.6 21:34:38 10° W 21:37:35 23° W 21:37:35 23° W visible
01 Nov 10.0 17:04:43 10° S 17:13:01 30° SE 17:19:40 15° E visible
01 Nov 9.0 19:06:49 10° SW 19:16:51 67° SSE 19:17:53 64° SE visible
01 Nov 10.3 21:11:39 10° W 21:16:05 31° W 21:16:05 31° W visible
02 Nov 10.1 16:42:05 10° S 16:50:10 28° SE 16:58:08 10° E visible
02 Nov 9.1 18:43:55 10° SW 18:53:56 65° SSE 18:56:20 52° ESE visible
02 Nov 9.9 20:48:41 10° W 20:54:32 41° W 20:54:32 41° W visible
03 Nov 9.2 18:21:03 10° SW 18:31:01 63° SSE 18:34:44 41° E visible
03 Nov 9.5 20:25:42 10° W 20:32:56 53° W 20:32:56 53° W visible
03 Nov 11.2 22:30:58 10° WNW 22:31:08 11° WNW 22:31:08 11° WNW visible
04 Nov 9.2 17:58:10 10° SW 18:08:06 61° SSE 18:13:06 32° E visible
04 Nov 9.2 20:02:43 10° W 20:11:18 68° WSW 20:11:18 68° WSW visible
04 Nov 11.0 22:07:59 10° WNW 22:09:29 16° W 22:09:29 16° W visible
05 Nov 9.3 17:35:18 10° SW 17:45:11 59° SSE 17:51:26 25° E visible
05 Nov 9.0 19:39:46 10° W 19:49:38 84° SW 19:49:38 84° SW visible
05 Nov 10.7 21:45:01 10° W 21:47:49 22° W 21:47:49 22° W visible
06 Nov 9.4 17:12:26 10° SW 17:22:16 57° SSE 17:29:44 19° ENE visible
06 Nov 8.9 19:16:47 10° WSW 19:27:02 87° S 19:27:56 77° E visible
06 Nov 10.4 21:22:03 10° W 21:26:07 28° W 21:26:07 28° W visible
07 Nov 9.5 16:49:36 10° SW 16:59:21 54° SSE 17:08:01 14° ENE visible
07 Nov 9.0 18:53:50 10° WSW 19:04:04 86° S 19:06:12 62° E visible
07 Nov 10.1 20:59:05 10° W 21:04:24 37° W 21:04:24 37° W visible
08 Nov 9.6 16:26:46 10° SW 16:36:27 52° SE 16:46:06 10° ENE visible
08 Nov 9.0 18:30:53 10° WSW 18:41:07 85° SSE 18:44:29 49° E visible
08 Nov 9.8 20:36:07 10° W 20:42:40 47° W 20:42:40 47° W visible
09 Nov 9.1 18:07:55 10° WSW 18:18:09 84° SSE 18:22:45 39° E visible
09 Nov 9.4 20:13:09 10° W 20:20:56 59° W 20:20:56 59° W visible
09 Nov 11.1 22:18:22 10° WNW 22:19:07 13° WNW 22:19:07 13° WNW visible
